• In Germany
  • List of Countries
  • For 7 days
  • Water Temperature
  • Satellite Maps
  • Weather Map
  • Weather Widgets
  • user-avatar
    Login

    Hourly Weather Dinagepoor

    Today, 26 September, Tuesday

    Time Temperature Precipitation Wind Pressure Humidity
    00:00 +31°C° 0.1 mm 1 mps 750 mmHg 72%
    01:00 +31°C° 0.6 mm 1 mps 750 mmHg 74%
    02:00 +31°C° 0.6 mm 1 mps 750 mmHg 75%
    03:00 +28°C° 0.6 mm 0 mps 750 mmHg 77%
    04:00 +28°C° 0.1 mm 0 mps 750 mmHg 77%
    05:00 +28°C° 0.1 mm 0 mps 750 mmHg 78%
    06:00 +28°C° 0.1 mm 0 mps 751 mmHg 78%
    07:00 +29°C° 0 mm 0 mps 751 mmHg 74%
    08:00 +31°C° 0 mm 0 mps 751 mmHg 69%
    09:00 +34°C° 0 mm 1 mps 752 mmHg 65%
    10:00 +33°C° 0 mm 0 mps 752 mmHg 60%
    11:00 +34°C° 0 mm 0 mps 752 mmHg 55%
    12:00 +36°C° 0 mm 0 mps 751 mmHg 50%
    13:00 +36°C° 0 mm 0 mps 751 mmHg 49%
    14:00 +36°C° 0 mm 0 mps 750 mmHg 48%
    15:00 +39°C° 0 mm 1 mps 749 mmHg 47%
    16:00 +37°C° 0 mm 1 mps 749 mmHg 51%
    17:00 +36°C° 0 mm 1 mps 749 mmHg 54%
    18:00 +34°C° 0 mm 1 mps 749 mmHg 58%
    19:00 +34°C° 0 mm 1 mps 750 mmHg 59%
    20:00 +34°C° 0 mm 1 mps 750 mmHg 60%
    21:00 +33°C° 0 mm 1 mps 751 mmHg 61%
    22:00 +33°C° 0 mm 1 mps 751 mmHg 62%
    23:00 +33°C° 0 mm 1 mps 751 mmHg 63%

    Tomorrow, 27 September, Wednesday

    Time Temperature Precipitation Wind Pressure Humidity
    00:00 +32°C° 0 mm 1 mps 751 mmHg 64%
    01:00 +32°C° 0 mm 1 mps 751 mmHg 66%
    02:00 +32°C° 0 mm 1 mps 751 mmHg 67%
    03:00 +31°C° 0 mm 1 mps 750 mmHg 68%
    04:00 +31°C° 0 mm 1 mps 750 mmHg 69%
    05:00 +31°C° 0 mm 1 mps 750 mmHg 71%
    06:00 +30°C° 0 mm 1 mps 751 mmHg 72%
    07:00 +32°C° 0 mm 1 mps 751 mmHg 68%
    08:00 +33°C° 0 mm 1 mps 752 mmHg 65%
    09:00 +34°C° 0 mm 1 mps 753 mmHg 61%
    10:00 +35°C° 0 mm 1 mps 752 mmHg 56%
    11:00 +37°C° 0 mm 1 mps 752 mmHg 52%
    12:00 +39°C° 0 mm 1 mps 752 mmHg 48%
    13:00 +39°C° 0 mm 1 mps 751 mmHg 47%
    14:00 +39°C° 0 mm 1 mps 750 mmHg 46%
    15:00 +39°C° 0 mm 1 mps 749 mmHg 44%
    16:00 +37°C° 0 mm 1 mps 749 mmHg 48%
    17:00 +36°C° 0 mm 1 mps 749 mmHg 52%
    18:00 +35°C° 0 mm 1 mps 749 mmHg 56%
    19:00 +34°C° 0 mm 1 mps 750 mmHg 59%
    20:00 +34°C° 0 mm 1 mps 751 mmHg 61%
    21:00 +33°C° 0 mm 1 mps 751 mmHg 64%
    22:00 +33°C° 0 mm 1 mps 751 mmHg 66%
    23:00 +32°C° 0 mm 2 mps 751 mmHg 69%

    Day after tomorrow, 28 September, Thursday

    Time Temperature Precipitation Wind Pressure Humidity
    00:00 +32°C° 0 mm 2 mps 751 mmHg 71%
    01:00 +31°C° 0 mm 2 mps 751 mmHg 73%
    02:00 +31°C° 0 mm 2 mps 750 mmHg 74%
    03:00 +31°C° 0 mm 2 mps 750 mmHg 75%
    04:00 +31°C° 0 mm 1 mps 750 mmHg 76%
    05:00 +30°C° 0 mm 1 mps 750 mmHg 77%
    06:00 +30°C° 0 mm 1 mps 750 mmHg 78%
    07:00 +31°C° 0.2 mm 1 mps 751 mmHg 74%
    08:00 +33°C° 0.2 mm 1 mps 751 mmHg 70%
    09:00 +34°C° 0.2 mm 1 mps 752 mmHg 66%
    10:00 +35°C° 0.6 mm 1 mps 752 mmHg 62%
    11:00 +36°C° 0.6 mm 2 mps 752 mmHg 58%
    12:00 +37°C° 0.6 mm 2 mps 751 mmHg 54%
    13:00 +37°C° 0.1 mm 2 mps 751 mmHg 55%
    14:00 +37°C° 0.1 mm 2 mps 750 mmHg 57%
    15:00 +37°C° 0.1 mm 2 mps 749 mmHg 58%
    16:00 +36°C° 0 mm 2 mps 749 mmHg 62%
    17:00 +35°C° 0 mm 2 mps 749 mmHg 66%
    18:00 +34°C° 0 mm 2 mps 749 mmHg 69%
    19:00 +32°C° 0.1 mm 1 mps 750 mmHg 72%
    20:00 +32°C° 0.1 mm 1 mps 751 mmHg 74%
    21:00 +31°C° 0.1 mm 1 mps 751 mmHg 77%
    22:00 +31°C° 0.3 mm 1 mps 751 mmHg 78%
    23:00 +30°C° 0.3 mm 1 mps 751 mmHg 80%

    29 September, Friday

    Time Temperature Precipitation Wind Pressure Humidity
    00:00 +30°C° 0.3 mm 1 mps 751 mmHg 81%
    01:00 +30°C° 0.7 mm 1 mps 750 mmHg 82%
    02:00 +30°C° 0.7 mm 1 mps 750 mmHg 83%
    03:00 +29°C° 0.7 mm 1 mps 750 mmHg 83%
    04:00 +29°C° 1.3 mm 1 mps 750 mmHg 84%
    05:00 +29°C° 1.3 mm 1 mps 750 mmHg 85%
    06:00 +29°C° 1.3 mm 2 mps 751 mmHg 85%
    07:00 +29°C° 0.8 mm 2 mps 751 mmHg 84%
    08:00 +30°C° 0.8 mm 3 mps 752 mmHg 82%
    09:00 +30°C° 0.8 mm 3 mps 752 mmHg 80%
    10:00 +32°C° 0.9 mm 4 mps 752 mmHg 77%
    11:00 +33°C° 0.9 mm 4 mps 752 mmHg 74%
    12:00 +33°C° 0.9 mm 4 mps 751 mmHg 71%
    13:00 +33°C° 0.7 mm 5 mps 750 mmHg 71%
    14:00 +33°C° 0.7 mm 5 mps 750 mmHg 72%
    15:00 +33°C° 0.7 mm 5 mps 749 mmHg 73%
    16:00 +32°C° 0.1 mm 5 mps 749 mmHg 76%
    17:00 +30°C° 0.1 mm 4 mps 750 mmHg 79%
    18:00 +29°C° 0.1 mm 4 mps 750 mmHg 83%
    19:00 +29°C° 0 mm 4 mps 751 mmHg 83%
    20:00 +29°C° 0 mm 4 mps 751 mmHg 84%
    21:00 +28°C° 0 mm 4 mps 752 mmHg 84%
    22:00 +28°C° 1.2 mm 4 mps 752 mmHg 86%
    23:00 +28°C° 1.2 mm 4 mps 752 mmHg 88%

    30 September, Saturday

    Time Temperature Precipitation Wind Pressure Humidity
    00:00 +27°C° 1.2 mm 4 mps 752 mmHg 91%
    01:00 +27°C° 1.6 mm 4 mps 751 mmHg 92%
    02:00 +27°C° 1.6 mm 4 mps 751 mmHg 93%
    03:00 +27°C° 1.6 mm 4 mps 751 mmHg 94%
    04:00 +26°C° 0.6 mm 4 mps 751 mmHg 94%
    05:00 +26°C° 0.6 mm 4 mps 752 mmHg 94%
    06:00 +26°C° 0.6 mm 4 mps 752 mmHg 94%
    07:00 +27°C° 0.5 mm 5 mps 753 mmHg 92%
    08:00 +27°C° 0.5 mm 5 mps 753 mmHg 90%
    09:00 +28°C° 0.5 mm 5 mps 754 mmHg 88%
    10:00 +28°C° 0.4 mm 5 mps 753 mmHg 87%
    11:00 +29°C° 0.4 mm 5 mps 753 mmHg 85%
    12:00 +29°C° 0.4 mm 6 mps 753 mmHg 83%
    13:00 +29°C° 0.6 mm 6 mps 752 mmHg 84%
    14:00 +29°C° 0.6 mm 6 mps 752 mmHg 85%
    15:00 +28°C° 0.6 mm 6 mps 751 mmHg 85%
    16:00 +28°C° 0.1 mm 5 mps 751 mmHg 86%
    17:00 +27°C° 0.1 mm 4 mps 751 mmHg 87%
    18:00 +27°C° 0.1 mm 4 mps 752 mmHg 88%
    19:00 +27°C° 0.7 mm 4 mps 752 mmHg 89%
    20:00 +27°C° 0.7 mm 3 mps 753 mmHg 91%
    21:00 +27°C° 0.7 mm 3 mps 753 mmHg 93%
    22:00 +27°C° 1 mm 3 mps 753 mmHg 94%
    23:00 +26°C° 1 mm 3 mps 753 mmHg 94%

    1 October, Sunday

    Time Temperature Precipitation Wind Pressure Humidity
    00:00 +26°C° 1 mm 3 mps 752 mmHg 95%
    01:00 +26°C° 0.4 mm 3 mps 752 mmHg 95%
    02:00 +26°C° 0.4 mm 3 mps 752 mmHg 96%
    03:00 +26°C° 0.4 mm 3 mps 751 mmHg 96%
    04:00 +26°C° 0.1 mm 4 mps 751 mmHg 95%
    05:00 +26°C° 0.1 mm 4 mps 752 mmHg 95%
    06:00 +26°C° 0.1 mm 4 mps 752 mmHg 94%
    07:00 +27°C° 0.1 mm 4 mps 753 mmHg 92%
    08:00 +27°C° 0.1 mm 5 mps 753 mmHg 90%
    09:00 +28°C° 0.1 mm 5 mps 753 mmHg 88%
    10:00 +29°C° 0.2 mm 5 mps 753 mmHg 85%
    11:00 +29°C° 0.2 mm 5 mps 753 mmHg 83%
    12:00 +30°C° 0.2 mm 5 mps 752 mmHg 81%
    13:00 +30°C° 0.9 mm 6 mps 752 mmHg 81%
    14:00 +30°C° 0.9 mm 6 mps 751 mmHg 80%
    15:00 +30°C° 0.9 mm 6 mps 750 mmHg 80%
    16:00 +29°C° 1.1 mm 6 mps 751 mmHg 83%
    17:00 +28°C° 1.1 mm 5 mps 751 mmHg 87%
    18:00 +28°C° 1.1 mm 5 mps 752 mmHg 90%
    19:00 +27°C° 1 mm 5 mps 752 mmHg 91%
    20:00 +27°C° 1 mm 5 mps 753 mmHg 92%
    21:00 +27°C° 1 mm 5 mps 753 mmHg 93%
    22:00 +27°C° 1.5 mm 5 mps 753 mmHg 94%
    23:00 +26°C° 1.5 mm 5 mps 753 mmHg 94%
    Show more